Probability
32 55 71 74 77 77 81 71 71 77 74 74 74 77 77 74 77 71 68 74 71 77 71 68 68 71 71 71 71 68 58 61 58 61 58 55 48 48 55 65 71 39 68
32 55 71 81 77 77 84 81 71 68 71 77 77 81 77 77 77 74 71 74 71 68 68 71 68 81 71 68 61 61 61 55 52 52 55 48 58 58 58 58 48 61 74
35 55 68 77 77 77 77 81 77 74 68 71 81 84 81 74 81 77 71 71 71 71 68 68 68 74 68 65 55 58 58 61 61 58 52 29 35 55 58 58 58 68 65
32 48 55 84 77 74 71 81 81 77 81 71 74 81 77 81 81 74 71 71 68 68 68 68 74 74 61 68 58 52 48 52 52 48 29 19 26 42 48 65 52 61 58
29 48 61 77 74 74 74 81 81 77 77 77 77 71 74 77 74 77 71 74 71 71 71 71 74 68 68 61 58 58 55 42 32 26 23 32 35 39 48 52 52 48 52
29 45 55 81 77 81 77 81 77 81 74 74 74 81 74 74 74 81 71 71 68 71 71 71 68 58 74 71 52 45 52 35 32 19 19 29 39 52 52 52 45 48 42
26 39 48 81 77 81 84 81 84 81 81 77 74 68 68 74 77 77 71 71 65 71 71 68 55 61 55 48 58 35 42 32 19 26 26 29 42 45 45 48 48 42 42
23 45 55 74 87 87 87 84 84 84 84 81 68 68 74 81 77 68 68 61 68 68 68 71 61 61 48 45 42 48 29 29 16 13 23 29 48 42 42 39 35 39 45
19 26 58 58 61 74 81 74 71 77 81 81 74 74 71 74 68 58 61 65 58 68 61 48 55 45 48 55 48 39 26 32 16 19 10 29 39 42 32 39 35 35 39
23 19 35 48 48 48 58 68 71 68 71 68 74 71 68 52 45 48 58 55 52 52 55 48 55 52 55 61 55 45 32 32 16 13 26 19 42 39 35 32 32 32 45
19 26 26 32 52 48 45 45 71 61 61 61 61 65 61 52 42 48 45 55 42 52 55 52 45 55 55 58 55 42 32 29 23 23 29 32 39 42 39 39 39 42 48
23 19 39 42 52 39 26 39 58 39 48 52 52 55 58 58 52 26 35 55 52 52 48 45 48 42 42 39 26 26 32 23 29 23 19 35 32 39 39 39 42 42 45
19 23 32 29 42 48 55 55 48 48 58 48 39 55 58 52 45 39 39 52 52 39 29 39 32 23 26 32 26 26 19 26 35 29 19 29 32 35 45 35 42 39 39
26 26 32 29 52 52 55 48 55 48 42 35 35 42 45 55 48 45 52 48 42 42 45 39 29 26 29 26 23 19 23 26 26 23 39 29 26 29 39 35 48 48 45
26 29 35 42 58 65 61 65 42 42 35 42 45 39 35 39 39 39 61 48 39 39 35 45 42 39 35 26 19 19 16 23 26 19 32 26 29 26 45 42 42 45 42
32 35 39 45 61 71 65 65 48 39 61 32 35 26 35 39 55 48 52 55 52 52 35 39 32 29 29 29 19 16 13 13 23 32 19 26 26 26 32 35 42 42 42
42 45 45 48 52 68 61 55 29 39 35 29 29 35 45 42 52 52 55 55 48 35 35 32 23 23 26 23 23 19 19 19 29 32 29 26 29 23 23 26 32 42 42
42 45 52 29 32 58 65 55 23 26 23 23 29 35 42 52 48 58 45 42 48 35 32 32 26 26 23 26 32 29 26 35 35 32 26 32 35 19 23 26 35 32 35
52 58 58 42 48 55 55 52 35 42 35 32 32 42 45 48 48 42 48 55 42 35 32 23 29 29 29 32 35 39 29 29 32 29 26 19 23 32 26 16 26 26 26
52 61 61 65 55 55 48 58 55 45 39 32 42 45 48 48 48 35 45 42 39 32 45 45 35 35 32 32 13 16 35 26 35 26 23 23 26 26 23 16 26 26 32
55 58 61 65 68 68 55 39 35 42 42 42 45 48 48 45 45 48 52 48 52 42 39 35 26 19 26 29 26 19 23 19 26 32 26 26 26 19 16 23 23 29 26
61 65 58 58 58 58 61 58 52 48 45 45 45 48 45 45 48 35 55 55 48 55 48 48 52 26 19 23 32 29 19 19 32 13 16 26 26 23 19 10 16 32 32
48 58 42 61 61 65 61 45 45 52 45 35 48 55 48 52 52 55 52 52 55 45 48 52 52 45 23 23 29 19 19 16 23 13 19 19 23 26 19 10 10 16 26
52 55 61 68 68 71 55 52 45 42 45 48 65 61 55 58 55 52 45 48 52 35 48 42 35 39 48 39 29 35 26 23 19 26 16 13 16 19 23 6 10 23 29
42 52 65 71 71 68 65 48 48 39 55 58 65 68 68 58 52 45 48 52 55 48 52 48 52 48 39 39 29 16 19 26 16 16 10 16 16 19 19 23 23 29 32
39 52 55 68 68 68 61 52 55 55 52 61 65 55 55 58 52 45 55 58 55 48 48 55 52 48 48 42 42 26 26 23 16 16 13 19 13 19 23 29 23 23 19
Height
5890 5890 5891 5891 5892 5892 5893 5893 5893 5893 5894 5894 5895 5895 5896 5896 5896 5897 5897 5897 5898 5898 5898 5898 5898 5898 5898 5898 5899 5899 5899 5898 5898 5898 5898 5899 5899 5899 5900 5900 5900 5901 5901
5891 5891 5892 5892 5892 5892 5893 5893 5894 5894 5894 5894 5895 5895 5896 5896 5897 5897 5898 5898 5898 5898 5898 5898 5898 5898 5898 5899 5899 5899 5898 5898 5898 5898 5898 5898 5899 5899 5900 5900 5900 5901 5901
5892 5892 5893 5893 5893 5893 5894 5894 5895 5895 5894 5894 5894 5895 5896 5897 5897 5898 5898 5898 5899 5899 5899 5899 5899 5899 5899 5899 5898 5898 5898 5898 5898 5898 5898 5898 5898 5899 5899 5900 5900 5900 5901
5893 5893 5893 5894 5894 5894 5894 5895 5895 5895 5894 5893 5893 5895 5896 5897 5898 5898 5899 5899 5899 5899 5899 5899 5899 5899 5899 5899 5899 5898 5898 5898 5898 5898 5898 5898 5898 5898 5899 5900 5900 5900 5900
5894 5894 5894 5894 5895 5895 5895 5895 5895 5895 5893 5890 5891 5894 5896 5897 5898 5899 5899 5899 5899 5899 5899 5899 5899 5899 5899 5899 5898 5898 5898 5898 5898 5898 5898 5898 5898 5898 5899 5899 5900 5900 5900
5895 5895 5895 5895 5896 5896 5896 5896 5896 5896 5894 5892 5892 5895 5897 5898 5899 5899 5899 5900 5900 5899 5899 5899 5899 5899 5898 5898 5898 5898 5898 5898 5898 5898 5898 5898 5898 5898 5898 5899 5899 5899 5900
5896 5895 5896 5896 5897 5897 5897 5897 5897 5897 5896 5895 5896 5897 5898 5899 5900 5900 5900 5900 5900 5900 5899 5899 5899 5898 5898 5898 5898 5898 5898 5898 5898 5898 5898 5898 5899 5898 5898 5898 5899 5899 5899
5897 5897 5897 5897 5897 5898 5898 5898 5898 5898 5897 5897 5898 5898 5899 5899 5900 5900 5900 5900 5900 5900 5900 5899 5899 5899 5899 5898 5898 5898 5898 5898 5898 5898 5898 5898 5898 5898 5898 5898 5898 5898 5899
5898 5898 5898 5899 5899 5899 5898 5898 5898 5898 5899 5899 5899 5899 5900 5900 5900 5901 5901 5900 5900 5900 5899 5899 5899 5899 5899 5899 5898 5898 5897 5898 5898 5898 5898 5898 5897 5897 5898 5897 5898 5898 5898
5899 5899 5900 5900 5900 5899 5899 5899 5899 5899 5899 5900 5900 5900 5900 5900 5901 5901 5900 5900 5900 5900 5899 5899 5898 5898 5898 5899 5898 5898 5898 5897 5897 5897 5897 5897 5897 5897 5897 5897 5897 5897 5897
5900 5900 5901 5900 5900 5900 5900 5900 5900 5900 5900 5900 5900 5900 5901 5901 5901 5901 5901 5900 5900 5900 5899 5899 5898 5898 5898 5898 5898 5898 5897 5897 5897 5897 5897 5897 5896 5896 5896 5896 5896 5896 5897
5901 5901 5901 5901 5901 5901 5901 5901 5900 5900 5900 5900 5900 5901 5901 5901 5900 5900 5900 5900 5900 5900 5899 5899 5898 5898 5897 5897 5897 5897 5897 5897 5896 5897 5896 5896 5896 5896 5895 5896 5896 5896 5896
5902 5902 5902 5902 5902 5902 5901 5901 5901 5901 5901 5900 5900 5901 5901 5901 5900 5900 5900 5900 5900 5899 5899 5898 5898 5897 5897 5896 5897 5897 5896 5896 5896 5896 5896 5896 5895 5894 5894 5895 5895 5895 5895
5903 5903 5903 5903 5902 5902 5902 5901 5901 5901 5901 5901 5901 5901 5901 5901 5900 5900 5900 5899 5899 5899 5898 5897 5897 5896 5895 5895 5896 5896 5896 5895 5895 5895 5895 5895 5894 5894 5894 5894 5894 5894 5894
5904 5904 5904 5903 5903 5903 5902 5901 5901 5901 5901 5901 5901 5901 5901 5901 5900 5900 5900 5899 5899 5898 5898 5897 5896 5895 5894 5894 5894 5895 5895 5895 5895 5894 5894 5894 5894 5893 5893 5893 5893 5893 5893
5905 5905 5904 5904 5904 5903 5903 5902 5901 5901 5901 5901 5901 5901 5901 5900 5900 5900 5899 5899 5898 5898 5897 5896 5895 5894 5893 5893 5893 5893 5894 5893 5893 5893 5893 5893 5893 5892 5892 5892 5892 5892 5892
5906 5905 5905 5904 5904 5903 5903 5902 5901 5901 5901 5901 5901 5901 5901 5900 5900 5899 5899 5898 5898 5897 5896 5895 5894 5893 5892 5892 5892 5892 5892 5892 5892 5892 5892 5892 5891 5891 5891 5891 5891 5891 5890
5906 5905 5905 5905 5904 5903 5903 5902 5901 5901 5901 5901 5901 5900 5900 5900 5899 5899 5898 5898 5897 5896 5895 5895 5894 5893 5892 5892 5892 5891 5891 5891 5891 5891 5890 5890 5889 5889 5889 5889 5889 5889 5889
5906 5906 5905 5905 5904 5903 5903 5902 5901 5901 5901 5900 5900 5899 5899 5899 5898 5898 5897 5897 5896 5895 5894 5894 5893 5892 5892 5891 5890 5890 5890 5889 5889 5889 5888 5888 5887 5887 5887 5887 5887 5886 5886
5906 5906 5905 5904 5904 5903 5902 5902 5901 5900 5900 5900 5899 5899 5898 5898 5897 5897 5897 5896 5895 5894 5893 5893 5892 5891 5891 5890 5889 5889 5888 5887 5887 5887 5886 5886 5885 5884 5884 5884 5883 5883 5883
5906 5906 5905 5904 5903 5902 5901 5901 5900 5899 5899 5898 5898 5898 5897 5897 5896 5896 5896 5895 5894 5894 5892 5892 5891 5890 5889 5888 5887 5887 5886 5885 5885 5885 5884 5883 5882 5881 5881 5880 5880 5880 5880
5906 5905 5905 5904 5903 5902 5901 5900 5899 5898 5898 5897 5897 5896 5896 5896 5895 5895 5895 5894 5893 5892 5891 5891 5890 5889 5887 5886 5886 5885 5884 5884 5883 5882 5881 5880 5879 5878 5877 5876 5876 5876 5876
5906 5905 5904 5903 5902 5901 5899 5898 5897 5897 5896 5896 5896 5895 5895 5895 5894 5894 5893 5893 5892 5891 5890 5889 5888 5887 5886 5885 5884 5883 5883 5882 5881 5880 5878 5877 5876 5875 5874 5873 5872 5871 5871
5905 5904 5903 5902 5901 5900 5898 5897 5896 5895 5895 5895 5894 5894 5894 5893 5893 5892 5892 5891 5890 5890 5889 5887 5886 5885 5884 5883 5882 5881 5880 5879 5878 5877 5876 5874 5872 5871 5870 5869 5868 5868 5867
5904 5903 5902 5901 5900 5899 5898 5896 5895 5894 5894 5893 5893 5892 5892 5892 5891 5890 5890 5889 5888 5887 5886 5885 5884 5883 5882 5881 5880 5878 5877 5876 5875 5874 5873 5871 5869 5868 5866 5865 5864 5864 5863
5902 5901 5900 5900 5899 5898 5897 5895 5895 5894 5893 5892 5892 5891 5890 5890 5889 5888 5888 5887 5886 5885 5884 5883 5882 5881 5880 5878 5877 5876 5875 5873 5872 5871 5870 5868 5866 5864 5863 5861 5860 5859 5859
Wind_Speed
9 9 9 8 8 8 8 7 8 8 9 9 9 9 8 8 9 9 8 7 6 6 5 5 5 4 4 3 3 2 2 1 1 1 1 2 2 3 2 2 3 3 3
8 8 8 7 7 8 8 7 7 7 8 8 8 8 8 8 8 8 8 7 6 6 5 5 5 4 3 2 2 2 2 1 1 1 1 2 3 3 3 2 3 3 3
8 8 7 7 7 7 7 7 7 7 6 7 7 7 8 8 8 8 7 7 6 6 5 5 4 4 3 2 2 1 1 1 1 1 2 2 3 4 4 4 4 4 4
8 8 7 7 8 7 7 7 7 6 5 5 6 7 7 7 7 7 7 6 6 5 5 4 4 3 2 1 1 1 1 1 1 2 2 2 3 3 4 4 4 4 5
8 8 8 8 8 7 7 7 7 7 6 6 7 8 7 7 7 7 6 5 5 4 5 4 3 2 2 1 1 1 1 1 1 1 1 2 2 2 4 4 5 4 5
8 8 8 7 7 7 7 7 7 6 7 7 8 8 7 7 6 6 5 5 4 4 4 3 3 2 1 1 1 2 1 1 1 1 2 1 2 2 4 4 5 5 4
8 8 8 8 7 7 7 6 6 7 7 8 7 8 7 6 6 6 5 4 3 3 3 2 2 1 1 2 2 1 1 1 1 0 1 2 2 3 3 5 5 6 5
7 7 7 7 7 7 6 6 6 6 6 7 7 7 6 6 5 5 4 4 3 3 2 2 2 1 1 1 1 1 1 1 1 1 2 3 3 3 3 5 6 5 5
7 7 7 6 6 6 5 6 6 6 6 6 6 6 6 6 5 5 4 3 3 2 1 1 1 1 1 1 1 1 1 1 1 1 1 2 3 3 3 4 5 5 5
7 6 6 5 6 5 5 5 5 5 6 6 5 5 5 5 4 4 3 3 2 2 1 1 0 0 0 1 1 1 1 1 1 1 2 2 3 4 4 4 5 5 5
6 6 5 5 5 5 4 4 4 4 5 4 4 4 4 4 4 3 2 2 1 1 0 0 0 0 0 1 1 1 1 2 1 2 2 3 3 3 4 4 5 5 5
6 5 4 4 4 4 4 3 3 3 4 4 5 4 4 3 3 2 2 1 0 0 1 1 1 2 1 1 1 2 2 2 2 2 3 3 3 4 4 4 4 4 5
5 4 4 4 4 4 3 2 3 4 3 4 4 4 4 3 2 2 2 1 1 1 1 1 1 2 2 2 2 2 2 3 3 3 4 4 4 4 3 4 4 4 5
4 3 3 3 4 3 3 3 3 4 3 3 3 3 3 3 2 2 1 1 1 1 2 2 3 2 2 3 3 3 3 3 3 3 4 4 5 5 4 4 4 4 6
3 3 3 4 4 3 2 3 3 3 3 3 3 3 2 2 2 1 1 2 2 2 3 3 3 3 3 4 4 3 4 4 4 4 4 5 5 5 5 5 5 4 5
2 2 2 3 2 2 2 2 2 2 2 2 2 3 2 1 1 1 1 2 2 3 4 4 3 4 4 3 4 4 4 4 4 4 5 5 5 5 6 5 5 6 6
2 2 2 2 2 2 2 1 1 1 1 2 1 2 2 1 1 1 2 2 3 4 4 4 4 3 4 4 4 5 5 5 5 5 6 6 6 7 6 7 6 7 7
1 1 1 1 2 2 2 2 1 1 1 2 2 2 2 2 2 2 2 3 3 4 5 4 4 4 4 4 3 4 5 5 6 7 7 7 8 8 8 8 8 9 10
1 0 1 2 2 2 2 1 1 2 2 3 3 3 3 3 3 3 3 3 4 5 5 6 6 5 5 5 6 6 6 7 8 9 9 9 9 10 10 10 10 11 11
2 2 2 2 3 2 2 2 3 3 3 3 3 4 4 4 3 3 4 4 4 5 6 6 6 6 6 7 7 7 8 9 9 10 10 10 11 11 12 13 13 13 13
3 3 3 3 3 3 3 3 4 3 4 3 4 4 4 4 5 4 5 5 5 6 6 6 7 7 7 8 8 8 8 9 10 10 11 11 12 13 14 14 14 15 15
4 4 3 3 4 4 5 5 5 5 5 4 5 5 4 5 4 5 5 6 6 7 7 8 8 8 8 8 9 9 9 10 11 11 12 13 14 14 14 15 16 16 17
4 4 4 4 4 5 5 6 5 5 5 5 5 5 5 5 4 5 6 7 7 8 8 9 9 9 9 10 10 10 10 11 12 13 13 14 14 15 15 16 16 17 17
5 5 5 5 5 5 5 6 5 6 5 5 5 5 6 6 6 6 7 8 9 9 9 10 10 10 10 10 11 11 12 12 13 13 14 14 15 15 16 16 16 17 17
7 7 7 6 6 6 7 7 6 5 5 5 6 7 7 7 8 8 8 9 10 10 10 10 10 10 11 11 12 12 13 13 13 14 14 15 16 16 16 16 17 17 18
9 9 8 7 7 8 8 8 6 6 6 6 7 8 8 8 8 9 10 10 11 11 12 11 11 12 12 12 13 13 13 14 14 14 15 15 16 16 16 17 18 18 18
Wind_Direction
119 118 119 126 127 131 130 127 131 131 135 136 135 134 133 131 127 120 116 116 111 106 102 111 114 118 122 118 113 106 88 106 179 185 178 166 184 184 170 185 211 211 207
113 116 116 122 128 131 128 124 129 128 129 132 131 132 133 130 128 121 115 111 108 104 105 108 110 119 124 119 121 119 101 122 157 152 190 193 188 192 190 189 217 217 213
113 114 114 117 123 126 125 126 128 129 127 127 131 133 134 130 125 120 115 111 109 106 108 111 107 116 122 118 134 129 83 104 142 184 188 185 187 199 197 198 205 219 215
114 113 110 115 121 126 126 125 126 120 117 127 134 135 131 130 124 118 118 112 109 106 111 114 111 116 118 99 128 136 103 87 123 130 144 177 189 205 212 206 203 211 214
113 112 111 108 116 124 125 126 124 112 105 117 132 133 128 128 126 120 118 116 111 106 109 110 108 105 96 98 124 116 93 90 100 127 145 180 191 210 214 211 211 211 218
109 111 111 109 111 120 124 127 122 110 105 112 125 128 127 127 128 125 120 120 115 108 101 100 100 111 98 128 114 105 111 92 100 154 174 195 216 218 222 225 220 217 217
109 111 113 113 114 118 122 124 119 116 113 115 122 127 129 132 136 135 132 131 120 108 96 100 89 90 78 89 90 105 97 127 126 189 221 245 247 237 229 226 226 228 231
114 112 115 116 117 118 120 125 123 120 121 124 125 130 134 134 135 136 137 137 133 126 110 94 79 87 93 97 100 124 103 148 150 192 234 240 241 236 222 223 227 233 240
121 118 116 120 120 120 122 120 124 121 125 128 133 133 135 134 133 133 136 140 147 135 106 98 53 92 79 55 69 63 139 170 190 207 227 232 235 231 217 216 230 234 237
118 120 114 121 124 123 123 120 119 121 125 128 131 136 137 139 140 128 133 143 149 144 111 97 2 277 5 1 339 320 216 200 208 226 241 234 239 230 213 216 224 235 241
119 121 118 124 125 123 117 111 113 122 131 131 133 136 141 142 147 141 145 146 128 143 126 46 292 301 328 320 313 294 262 237 238 260 266 264 250 229 219 228 232 237 243
119 124 123 127 125 123 116 110 115 127 137 146 139 131 142 142 149 154 164 179 181 277 353 344 308 301 301 307 325 303 283 252 259 270 278 279 266 243 238 239 239 243 240
126 131 134 130 128 128 132 128 123 131 143 151 152 149 157 154 154 163 176 200 227 267 300 317 312 296 291 295 308 310 287 272 270 270 272 271 266 240 254 250 240 235 241
117 125 131 133 134 136 132 136 133 129 134 144 159 165 170 179 184 188 208 230 252 299 312 304 298 283 272 272 280 289 287 278 278 277 269 264 260 259 261 248 236 248 253
115 129 138 130 133 132 132 146 141 141 146 153 157 162 175 191 203 208 248 255 266 291 300 299 303 304 294 275 265 270 278 278 286 285 279 275 267 259 257 249 247 255 260
127 136 154 159 161 150 155 154 146 137 151 169 175 172 179 188 176 189 266 265 278 288 294 299 302 303 303 290 270 266 274 274 283 290 286 283 279 266 260 260 257 257 260
155 170 172 173 170 172 174 157 140 110 149 164 183 204 217 214 206 222 290 293 293 299 303 304 310 303 297 291 281 272 273 277 279 282 282 279 277 274 267 262 262 270 268
129 149 168 183 199 218 224 237 258 257 245 226 245 254 240 242 242 268 297 301 296 295 300 302 308 309 306 300 293 290 289 285 279 279 279 277 277 277 272 266 268 270 273
23 319 236 245 237 248 257 288 297 279 264 260 265 265 263 265 261 282 302 304 306 302 298 295 296 296 300 299 293 292 292 287 282 280 280 279 279 278 274 268 270 272 274
335 319 283 266 265 275 275 284 305 274 270 276 277 271 266 271 280 286 296 300 311 313 306 304 299 294 299 305 302 297 288 284 282 283 280 279 278 279 278 272 270 272 274
320 316 310 304 284 281 280 290 297 285 278 275 281 277 281 282 284 285 291 304 307 310 310 308 300 296 296 298 298 295 291 284 283 287 285 282 281 281 280 274 272 270 273
312 313 311 315 306 295 285 286 284 283 285 279 278 276 280 287 292 298 297 303 308 308 310 308 306 302 302 300 297 296 294 292 290 290 291 287 285 284 281 280 277 274 271
302 307 305 307 304 302 295 296 291 290 284 283 282 274 279 283 286 296 301 303 304 307 308 308 307 304 300 298 296 294 293 293 295 296 296 294 290 287 284 282 281 276 273
294 304 304 303 306 308 311 314 301 294 288 285 278 275 281 283 283 289 295 299 299 303 305 306 305 305 302 299 296 293 294 296 298 299 296 295 294 293 288 286 284 280 275
291 294 298 297 299 302 306 311 304 300 297 292 287 281 283 284 285 288 293 295 297 299 301 300 299 300 300 298 296 294 294 296 297 300 299 296 296 296 293 287 285 283 280
284 286 287 286 289 295 300 298 292 294 293 291 289 288 287 286 285 286 289 291 295 298 300 298 296 296 297 296 295 294 295 297 298 299 299 297 296 296 293 289 286 285 283